Weather History for CYYF - March, 2013

Change the Weather History Date:

Tuesday, March 19, 2013

  Actual Average Record
Temperature  
Mean Temperature 34 °F -  
Max Temperature 48 °F 56 °F 57 °F (1997)
Min Temperature 20 °F 34 °F 20 °F (2013)
Degree Days  
Heating Degree Days 31    
Moisture  
Dew Point 23 °F    
Average Humidity 62    
Maximum Humidity 100    
Minimum Humidity 26    
Precipitation  
Precipitation 0.00 in 0.03 in - ()
Sea Level Pressure  
Sea Level Pressure 30.13 in    
Wind  
Wind Speed 6 mph ()    
Max Wind Speed 29 mph    
Max Gust Speed 37 mph    
Visibility 15.0 miles    
Events      
Averages and records for this station are not official NWS values.
T = Trace of Precipitation, MM = Missing Value Source: Averaged Metar Reports

Daily Weather History Graph

Daily Weather History Graph

Search for Another Location

Airport or City:

Trip Planner

Search our weather history database for the weather conditions in past years. The results will help you decide how hot, cold, wet, or windy it might be!

Date:

Astronomy

Mar. 19, 2013 Rise Set
Actual Time 7:02 AM PDT 7:10 PM PDT
Civil Twilight 6:30 AM PDT 7:42 PM PDT
Nautical Twilight 5:53 AM PDT 8:19 PM PDT
Astronomical Twilight 5:14 AM PDT 8:58 PM PDT
Moon 11:27 AM PDT (3/19) 2:31 AM PDT (3/19)
Length of Visible Light 13h 11m
Length of Day
12h 07m
Waxing Crescent, 51% of the Moon is Illuminated
Mar 19
Waxing Crescent
Mar 27
Full
Apr 2
Last Quarter
Apr 10
New
Apr 18
First Quarter

Hourly Weather History & Observations

Time (PDT) Temp. Windchill Dew Point Humidity Pressure Visibility Wind Dir Wind Speed Gust Speed Precip Events Conditions
12:00 AM 24.8 °F - 24.8 °F 100% 30.24 in 15.0 mi Calm Calm - N/A   Partly Cloudy
1:00 AM 26.6 °F - 24.8 °F 93% 30.25 in 15.0 mi NNW 2.3 mph - N/A   Partly Cloudy
2:00 AM 24.8 °F - 21.2 °F 86% 30.26 in 15.0 mi Variable 2.3 mph - N/A   Partly Cloudy
3:00 AM 23.0 °F 18.4 °F 21.2 °F 93% 30.29 in 15.0 mi ENE 3.5 mph - N/A   Partly Cloudy
4:00 AM 23.0 °F 18.4 °F 21.2 °F 93% 30.30 in 15.0 mi NW 3.5 mph - N/A   Partly Cloudy
5:00 AM 22 °F - 19 °F 85% 30.31 in 15 mi NNE 2.3 mph - -   Clear
6:00 AM 23.0 °F - 19.4 °F 86% 30.30 in 15.0 mi Calm Calm - N/A   Scattered Clouds
7:00 AM 23.0 °F - 19.4 °F 86% 30.32 in 15.0 mi North 2.3 mph - N/A   Scattered Clouds
8:00 AM 24.8 °F - 21.2 °F 86% 30.31 in 15.0 mi NE 2.3 mph - N/A   Mostly Cloudy
9:00 AM 28.4 °F - 24.8 °F 86% 30.30 in 15.0 mi Calm Calm - N/A   Mostly Cloudy
10:00 AM 32.0 °F - 26.6 °F 80% 30.30 in 15.0 mi Calm Calm - N/A   Overcast
11:00 AM 35 °F - 26 °F 58% 30.27 in 15 mi Calm Calm - -   Overcast
11:00 AM 35.6 °F - 24.8 °F 65% 30.27 in 15.0 mi Calm Calm - N/A   Overcast
12:00 PM 39.2 °F - 26.6 °F 61% 30.24 in 15.0 mi Calm Calm - N/A   Overcast
1:00 PM 46.4 °F 38.5 °F 24.8 °F 43% 30.18 in 15.0 mi South 21.9 mph - N/A   Overcast
2:00 PM 48.2 °F - 21.2 °F 34% 30.13 in 15.0 mi South 28.8 mph 36.8 mph N/A   Overcast
3:00 PM 48.2 °F - 23.0 °F 37% 30.09 in 15.0 mi South 28.8 mph 34.5 mph N/A   Overcast
4:00 PM 46.4 °F 40.1 °F 24.8 °F 43% 30.05 in 15.0 mi SSE 15.0 mph 23.0 mph N/A   Mostly Cloudy
5:00 PM 47 °F - 23 °F 26% 30.02 in 15 mi SSE 12.7 mph - -   Overcast
5:00 PM 46.4 °F 40.4 °F 23.0 °F 40% 30.01 in 15.0 mi SSE 13.8 mph 19.6 mph N/A   Overcast
6:00 PM 46.4 °F 41.1 °F 23.0 °F 40% 29.98 in 15.0 mi SSE 11.5 mph 19.6 mph N/A   Overcast
7:00 PM 44.6 °F 38.4 °F 23.0 °F 43% 29.94 in 15.0 mi South 12.7 mph - N/A   Overcast
8:00 PM 46.4 °F 39.5 °F 21.2 °F 37% 29.91 in 15.0 mi SSW 17.3 mph - N/A   Overcast
9:00 PM 44.6 °F 37.8 °F 23.0 °F 43% 29.88 in 15.0 mi South 15.0 mph 20.7 mph N/A   Overcast
10:00 PM 46.4 °F 38.7 °F 24.8 °F 43% 29.85 in 15.0 mi South 20.7 mph 26.5 mph N/A   Overcast
11:00 PM 45 °F - 28 °F 38% 29.82 in 15 mi South 20.7 mph - -   Overcast
11:00 PM 44.6 °F 35.9 °F 28.4 °F 53% 29.82 in 15.0 mi South 23.0 mph 29.9 mph N/A   Overcast